Погода в Туле

Хотите узнать прогноз погоды в Туле? Тогда Вам сюда: Погода в Туле

Поиск расширенной информации на нашем сайте:

Полезная информация:

Новости сайта



02.01.2020
Опубликован Долгосрочный прогноз погоды по городам России и ближнего зарубежья на январь 2020 года.
Карты: Прогноз на январь и февраль 2020 года, Сравнение прогнозируемой аномалии приземной температуры воздуха на январь 2020 года по разным моделям.




Погода в Туле - сегодня

Время (UTC), дата Ветер
(°,м/с) 
Видим.   Явления Облачность Т
(°С)
Тd
(°С)
f(%) Тe
(°С)
Pmin
(гПа)
dP
(гПа)
Po
(мм)
O2
(г/м3)
Тmin Tmax R s Состояние
почвы
12 16.04.21 190 (Ю) 10 км    9/9 600 м кучево-дожд. 
[Cb calv]
+18.2 +5.2 42 +19  1016.5  -0.4  744  280           
15 16.04.21 180 (Ю) 4{10}  10 км  гроза, ливневой дождь  10/10 600 м кучево-дожд. 
[Cb cap]
+15.7 +7.5 58 +16  1017.1  0.5  745  283      0.0     
18 16.04.21 120 (ЮВ) 4{11}  10 км    10/10 600 м кучево-дожд. 
[Cb cap]
+10.6 +10 96 +11  1018.5  0.9  746  287    +21     
21 16.04.21 100 (В) 10 км  {гроза, ливн. осадки}  4/4 1000 м 
[Sc]
+9.2 +7.7 90 +9  1018  -0.6  745  289           
00 17.04.21 110 (В) 10 км  {гроза, ливн. осадки}  5/0 верхняя 
[Ci fib]
+8.1 +6.1 87 +9  1019  0.9  746  291           
03 17.04.21 090 (В) 10 км  дымка  4/0 верхняя 
[Ci fib]
+6.9 +5.3 90 +7  1019.1  746  292  +6.9       
06 17.04.21 100 (В) 10 км    6/1 600 м средняя, верхняя 
[Sc|Ac trans|Ci fib]
+10.6 +5.4 70 +10  1019.1  0.3  746  288  +6.9      влажная 
09 17.04.21 110 (В) 10 км    9/3 600 м кучево-дожд., средняя, верхняя 
[Cb calv|Ac trans|Ci fib]
+13 +5.6 61 +13  1018.5  -0.4  746  286           
12 17.04.21 140 (ЮВ) 10 км    10/3 600 м кучево-дожд., средняя, верхняя 
[Cb calv|Ac trans|Ci fib]
+17.8 +3.8 39 +18  1016.3  -1.7  744  281           
15 17.04.21 тихо () {10}  10 км    10/8 600 м кучево-дожд., средняя 
[Cb calv|Ac und]
+17.5 +4.8 43 +18  1014.6  -1.7  743  281           
18 17.04.21 080 (В) 1{16}  10 км  {ливн. осадки}  9/8 600 м кучево-дожд., средняя 
[Cb calv|Ac trans]
+9.6 +7.3 86 +11  1018  2.6  745  289    +19     
21 17.04.21 тихо ()   10 км  слаб. ливневой дождь  10/10 600 м кучево-дожд. 
[Cb calv]
+9.2 +8 92 +9  1017.4  -0.6  745  289           
00 18.04.21 160 (Ю) 10 км  слаб. ливневой дождь  10/10 600 м кучево-дожд. 
[Cb calv]
+8.1 +7 93 +9  1018.4  0.9  745  290           
03 18.04.21 тихо ()   10 км  {ливн. осадки}  10/10 600 м кучево-дожд. 
[Cb calv]
+6.5 +5.6 94 +7  1018.5  745  292  +6.5       
06 18.04.21 010 (С) 10 км  {ливн. осадки}  9/6 600 м кучево-дожд., средняя 
[Cb calv|Ac trans]
+7.5 +5.5 87 +8  1018.5  0.1  745  291  +6.5      влажная 
09 18.04.21 080 (В) 10 км    9/8 600 м кучево-дожд., средняя 
[Cb calv|Ac trans]
+8.2 +4.8 79 +8  1019.2  0.7  746  291           
12 18.04.21 170 (Ю) 10 км    8/5 600 м кучево-дожд., верхняя 
[Cb calv|Ci fib]
+9.2 +3.7 68 +8  1019.5  0.4  746  290           
15 18.04.21 110 (В) 10 км    9/5 600 м кучево-дожд., средняя 
[Cb calv|Ac trans]
+10.2 +4.1 66 +10  1019.4  -0.1  746  289           
18 18.04.21 тихо ()   10 км  слаб. ливневой дождь  10/10 600 м кучево-дожд. 
[Cb calv]
+7.4 +6.1 91 +7  1020.5  0.9  747  292    +11     
21 18.04.21 100 (В) 10 км  в посл. час ливневой дождь  8/6 600 м кучево-дожд., средняя 
[Cb calv|Ac trans]
+6.2 +5.1 93 +5  1019.9  -0.7  746  293           
00 19.04.21 100 (В) 10 км  {ливн. осадки}  6/3 1000 м средняя 
[Sc|Ac trans]
+5.9 +4.7 92 +5  1029.3  -0.6  746  293           
03 19.04.21 080 (В) 10 км  слаб. ливневой дождь  8/6 600 м кучево-дожд., средняя 
[Cb calv|Ac trans]
+6 +4.9 93 +6  1019.1  -0.2  746  293  +5.9       
06 19.04.21 130 (ЮВ) 10 км  {ливн. осадки}  8/4 1000 м средняя 
[Sc|Ac trans]
+7.2 +4.2 81 +6  1019.6  0.6  746  292  +5.9      влажная 
09 19.04.21 120 (ЮВ) 10 км  слаб. ливневой дождь  10/10 600 м кучево-дожд. 
[Cb calv]
+6.8 +5.9 94 +6  1020.5  0.9  747  293           
12 19.04.21 100 (В) 10 км  слаб. ливневой дождь  10/10 600 м кучево-дожд. 
[Cb calv]
+7.4 +6.1 91 +7  1020.7  0.2  747  292           
Время (UTC), дата Ветер
(°,м/с) 
Видим.   Явления Облачность Т
(°С)
Тd
(°С)
f(%) Тe
(°С)
Pmin
(гПа)
dP
(гПа)
Po
(мм)
O2
(г/м3)
Тmin Tmax R s Состояние
почвы

Для получения пояснительной информации подведите курсор к названию столбца.

ПОГОДА в Туле - архив

Всё, что Вы хотите узнать о погоде в Туле - удобно и подробно!

Выберите нужную дату (начиная с 1 января 2019* года) и нажмите кнопку "Найти".
Будут отображены архивные сводки погоды по пункту Тула, начиная с указанной даты.


Отображать данные в формате CSV (для использования в таблицах Excel)


Внимание! Наш архив погоды предназначен исключительно для личного некоммерческого использования в познавательных целях. Если Вам необходимы официальные справки о состоянии погоды (для производственных, юридических, коммерческих и т.п. целей), обращайтесь в органы Росгидромета.

*Примечание: данная дата относится к архиву по метеостанциям СССР (Россия, СНГ, Балтия).
Архив по метеостанциям Зарубежной Европы и Азии (кроме Китая) хранится 10 дней, по другим регионам земного шара (Китай, Африка, Америка, Австралия, Океания) - 1 день.

Тула - район местоположения метеостанции


Название, широта, долгота, высота метеостанции:
Тула 54.2°ш. 37.6°д. 203 м над ур. моря [Российская Федерация]

Дополнительная информация

В oтличие oт бoльшинства пoгoдных сайтoв мы публикуем пoдрoбную метеoинфoрмацию в детальнoм прoфессиoнальнoм фoрмате.

Характеристики температуры и влажнoсти вoздуха измеряются на высoте 2 м в тени вдали oт зданий и деревьев.
Скoрoсть ветра измеряется на высoте 10 м (на урoвне рoста челoвека скoрoсть ветра ниже в 1.5-2 раза). Если метеoстанция нахoдится в гoрoде или в лесу, тo скoрoсть ветра занижена на 2-4 м/с пo сравнению с oткрытым местoм. Скoрoсть ветра над акватoриями крупных рек и oзёр, а также на вершинах хoлмoв на 2-5 м/с выше, чем в oбычных услoвиях.
Атмoсфернoе давление в разных тoчках местнoсти мoжет значительнo oтличаться oт давления на метеoстанции, в зависимoсти oт услoвий рельефа (при пoдъёме на 10 м давление пoнижается примернo на 1 мм рт.ст.).